Regional Weather Roundup
Issued by NWS

Home | Current Version | Previous Version | Graphics & Text | Print | Product List | Glossary On
Versions: 1 2 3 4 5 6 7 8 9 10 11 12 13 14 15 16 17 18 19 20 21 22 23 24 25 26 27 28 29 30 31 32 33 34 35 36 37 38 39 40 41 42 43 44 45 46 47 48 49 50
000
ASUS45 KBOU 281707
RWRCO

WEATHER ROUNDUP FOR COLORADO
NATIONAL WEATHER SERVICE DENVER/BOULDER CO
1100 AM MDT SAT MAR 28 2015

NOTE: "FAIR" INDICATES FEW OR NO CLOUDS BELOW 12000 FEET WITH NO
SIGNIFICANT WEATHER AND/OR OBSTRUCTIONS TO VISIBILITY.

COZ001>005-013-030-031-281800-
...NORTHWEST COLORADO...

CITY           SKY/WX    TMP DP  RH WIND       PRES   REMARKS
CRAIG          SUNNY     59  32  36 CALM      30.21F
HAYDEN         SUNNY     55  27  33 E5        30.22F
MEEKER         SUNNY     60  27  28 CALM      30.23F
MOUNT WERNER   NOT AVBL
STEAMBOAT SPGS SUNNY     50  33  50 CALM      30.23F
WALDEN         SUNNY     54  23  30 SW17G24   30.23S
$$

COZ006>008-011-281800-
...WEST CENTRAL VALLEYS...

CITY           SKY/WX    TMP DP  RH WIND       PRES   REMARKS
GRAND JUNCTION SUNNY     60  28  29 SE5       30.20F
MONTROSE       SUNNY     61  25  25 CALM      30.24F
EAGLE          SUNNY     52  27  37 CALM      30.27F
RIFLE          SUNNY     55  29  36 CALM      30.23F
DELTA          SUNNY     60  28  29 CALM      30.22F
NUCLA          SUNNY     59  27  29 CALM      30.29S
$$

COZ017>023-064>068-281800-
...SOUTHWEST COLORADO...

CITY           SKY/WX    TMP DP  RH WIND       PRES   REMARKS
DURANGO        SUNNY     59  28  30 S6        30.28F
CORTEZ         SUNNY     64  22  20 VRB3      30.25F
PAGOSA SPRINGS SUNNY     57  15  19 CALM      30.32F
TELLURIDE      SUNNY     54  20  26 W8        30.40S
WOLF CREEK PAS SUNNY     37  14  38 S9        30.52S
$$

COZ009-010-012-014-032>034-037-058>063-281800-
...CENTRAL COLORADO...

CITY           SKY/WX    TMP DP  RH WIND       PRES   REMARKS
ASPEN          SUNNY     58  24  27 N8        30.27F
BUENA VISTA    SUNNY     56  20  24 E9        30.26F
COPPER MTN     SUNNY     39  16  38 SW10G18   30.44F
BERTHOUD PASS  FAIR      32  27  80 W32G46    30.39F WCI  17
COTTONWOOD PAS SUNNY     52  12  20 W20G40    30.34F
GUNNISON       SUNNY     45  25  45 NE3       30.35F
KREMMLING      SUNNY     50  27  40 CALM      30.27F
LEADVILLE      SUNNY     45  17  32 NW15      30.34F
SALIDA         SUNNY     55  24  30 CALM      30.32F
SUNLIGHT       SUNNY     45  23  42 CALM      30.45R
WILKERSON PASS SUNNY     45  18  33 W6        30.42S
$$

COZ069>075-281800-
...SAN LUIS VALLEY/SANGRE DE CRISTO MOUNTAINS...

CITY           SKY/WX    TMP DP  RH WIND       PRES   REMARKS
ALAMOSA        SUNNY     57  19  22 VRB5      30.30F
LA VETA PASS   SUNNY     48  21  34 S12       30.38F
SAGUACHE       SUNNY     54  23  30 SE7       30.31F
$$

COZ035-036-038>040-281800-
...NORTHERN COLORADO FRONT RANGE...

CITY           SKY/WX    TMP DP  RH WIND       PRES   REMARKS
DENVER INTL AP MOSUNNY   69  26  20 SW6       30.07F
DMNS CITY PARK   N/A     71  25  17 S6        30.06F
AURORA         MOSUNNY   68  28  21 S9G16     30.09F
FRONT RANGE AP SUNNY     70  30  23 S5        30.09F
ERIE MUNI ARPT SUNNY     72  25  17 S8        30.04F
BOULDER MUN AP SUNNY     70  28  21 N5        30.04F
CENTENNIAL     MOSUNNY   67  24  19 S6        30.09F
BROOMFIELD     SUNNY     70  28  21 W17G24    30.08F
FORT COLLINS   SUNNY     66  36  32 SE8       30.06S
LONGMONT       SUNNY     74  33  22 E5        30.05F
$$

COZ041-046-047-076>085-087-088-281800-
...PIKES PEAK/PALMER DIVIDE AND SOUTHERN FOOTHILLS...

CITY           SKY/WX    TMP DP  RH WIND       PRES   REMARKS
COLO. SPRINGS  SUNNY     67  20  16 S13       30.16F
A. F. ACADEMY  SUNNY     66  20  17 S10       30.15F
ELLICOTT       SUNNY    N/A N/A N/A SW9       30.14F
FALCON         SUNNY     65  17  15 W7        30.19F
FORT CARSON    SUNNY     69  23  17 SE13      30.12F
LIMON          SUNNY     69  25  19 N9        30.10F
MONUMENT HILL  SUNNY     63  21  20 W6        30.17F
TRINIDAD       SUNNY     71  22  15 N12       30.16F
$$

COZ042>045-048>051-090-091-281800-
...NORTHEAST COLORADO...

CITY           SKY/WX    TMP DP  RH WIND       PRES   REMARKS
GREELEY ARPT   SUNNY     70  36  28 SE3       30.03F
AKRON          SUNNY     69  28  21 NW9       30.04F
BURLINGTON     SUNNY     71  28  20 W6        30.04F
WRAY           SUNNY     70  29  21 E3        30.01F
STERLING       SUNNY     68  34  28 S5        29.99F
HOLYOKE        NOT AVBL
FORT MORGAN    SUNNY     67  30  25 W7        30.04F
$$

COZ086-089-092>099-281800-
...SOUTHEAST COLORADO...

CITY           SKY/WX    TMP DP  RH WIND       PRES   REMARKS
PUEBLO         SUNNY     73  25  16 W12       30.09F
LA JUNTA       SUNNY     74  30  19 NW8       30.07F
LAMAR          SUNNY     70  32  24 W6        30.04F
SPRINGFIELD      N/A     75  27  17 NW13      30.07F
$$



USA.gov is the U.S. government's official web portal to all federal, state and local government web resources and services.